sat.trackr.live / text

‹ back to catalog

STARLINK-31641

NORAD 59374 · 2024-062A

PAYLOAD ACTIVE UNKNOWN

§ Identity

Operator
Country
US
Launch date
2024-04-02
Launch site
AFWTR
Launch vehicle
Mass (kg)
RCS (m²)

Purposes: comms

External: N2YO · Heavens-Above · Gunter

§ Orbital elements

Epoch: 2026-05-24T19:06:33.223104Z

Period
93.85 min
Inclination
53.1598°
Eccentricity
0.0000910
Mean motion
15.34397453 rev/d
Perigee alt
462.1 km
Apogee alt
463.3 km
Semi-major
6,840.8 km
B*
-3.8682e-5
RAAN
264.2973°
Arg perigee
86.1383°
Mean anomaly
273.9723°
Rev number
12,128

§ Raw data

STARLINK-316411 59374U 24062A   26144.79621786 -.00001683  00000+0 -38682-4 0  99952 59374  53.1598 264.2973 0000910  86.1383 273.9723 15.34397453121284

JSON: /api/v1/satellites/59374 · /tle

For live sub-satellite position, see the globe view (requires WebGL).

§ Visibility from observer

Set your observer location to see the next 7 days of passes ≥ 10°. The values pass through the URL so the page stays shareable.

No JS? Fill the form by hand. The geolocation button needs JavaScript.